• In Belgium
  • List of Countries
  • For 7 days
  • Water Temperature
  • Satellite Maps
  • Weather Map
  • Weather Widgets
  • user-avatar
    Login

    Hourly Weather De Panne

    Today, 22 September, Saturday

    Time Temperature Precipitation Wind Pressure Humidity
    00:00 +12°C° 0 mm 7 mps 763 mmHg 69%
    01:00 +11°C° 0 mm 7 mps 763 mmHg 72%
    02:00 +11°C° 0 mm 6 mps 763 mmHg 74%
    03:00 +11°C° 0 mm 6 mps 763 mmHg 76%
    04:00 +11°C° 0 mm 6 mps 763 mmHg 76%
    05:00 +11°C° 0 mm 6 mps 763 mmHg 76%
    06:00 +11°C° 0 mm 6 mps 763 mmHg 76%
    07:00 +13°C° 0.1 mm 6 mps 764 mmHg 74%
    08:00 +14°C° 0.1 mm 7 mps 764 mmHg 72%
    09:00 +14°C° 0.1 mm 7 mps 764 mmHg 69%
    10:00 +14°C° 0.1 mm 7 mps 764 mmHg 68%
    11:00 +14°C° 0.1 mm 6 mps 764 mmHg 67%
    12:00 +14°C° 0.1 mm 6 mps 764 mmHg 66%
    13:00 +14°C° 0.3 mm 6 mps 764 mmHg 72%
    14:00 +13°C° 0.3 mm 5 mps 763 mmHg 77%
    15:00 +13°C° 0.3 mm 5 mps 763 mmHg 82%
    16:00 +12°C° 0.8 mm 5 mps 763 mmHg 83%
    17:00 +11°C° 0.8 mm 4 mps 762 mmHg 85%
    18:00 +11°C° 0.8 mm 4 mps 762 mmHg 86%
    19:00 +11°C° 0.8 mm 4 mps 761 mmHg 87%
    20:00 +11°C° 0.8 mm 4 mps 761 mmHg 88%
    21:00 +11°C° 0.8 mm 4 mps 761 mmHg 90%
    22:00 +11°C° 0.4 mm 4 mps 760 mmHg 90%
    23:00 +11°C° 0.4 mm 4 mps 760 mmHg 90%

    Tomorrow, 23 September, Sunday

    Time Temperature Precipitation Wind Pressure Humidity
    00:00 +11°C° 0.4 mm 3 mps 759 mmHg 91%
    01:00 +11°C° 0.1 mm 3 mps 759 mmHg 91%
    02:00 +11°C° 0.1 mm 3 mps 759 mmHg 92%
    03:00 +12°C° 0.1 mm 2 mps 758 mmHg 92%
    04:00 +12°C° 0.1 mm 2 mps 758 mmHg 92%
    05:00 +12°C° 0.1 mm 2 mps 758 mmHg 92%
    06:00 +12°C° 0.1 mm 2 mps 758 mmHg 92%
    07:00 +12°C° 0.3 mm 2 mps 758 mmHg 91%
    08:00 +12°C° 0.3 mm 3 mps 758 mmHg 89%
    09:00 +12°C° 0.3 mm 3 mps 758 mmHg 88%
    10:00 +12°C° 4.2 mm 5 mps 757 mmHg 90%
    11:00 +11°C° 4.2 mm 6 mps 757 mmHg 91%
    12:00 +11°C° 4.2 mm 8 mps 757 mmHg 92%
    13:00 +10°C° 1.2 mm 8 mps 758 mmHg 90%
    14:00 +10°C° 1.2 mm 8 mps 759 mmHg 89%
    15:00 +10°C° 1.2 mm 8 mps 760 mmHg 87%
    16:00 +10°C° 0.5 mm 8 mps 762 mmHg 86%
    17:00 +10°C° 0.5 mm 8 mps 763 mmHg 85%
    18:00 +10°C° 0.5 mm 8 mps 765 mmHg 84%
    19:00 +10°C° 0.3 mm 8 mps 766 mmHg 83%
    20:00 +10°C° 0.3 mm 7 mps 767 mmHg 81%
    21:00 +10°C° 0.3 mm 7 mps 768 mmHg 80%
    22:00 +10°C° 0.1 mm 7 mps 769 mmHg 79%
    23:00 +9°C° 0.1 mm 7 mps 770 mmHg 77%

    Day after tomorrow, 24 September, Monday

    Time Temperature Precipitation Wind Pressure Humidity
    00:00 +9°C° 0.1 mm 6 mps 770 mmHg 75%
    01:00 +9°C° 0 mm 6 mps 771 mmHg 75%
    02:00 +9°C° 0 mm 6 mps 772 mmHg 75%
    03:00 +9°C° 0 mm 5 mps 773 mmHg 76%
    04:00 +9°C° 0 mm 5 mps 773 mmHg 75%
    05:00 +10°C° 0 mm 4 mps 774 mmHg 74%
    06:00 +10°C° 0 mm 4 mps 774 mmHg 74%
    07:00 +11°C° 0 mm 4 mps 775 mmHg 69%
    08:00 +12°C° 0 mm 4 mps 775 mmHg 65%
    09:00 +14°C° 0 mm 4 mps 776 mmHg 60%
    10:00 +14°C° 0 mm 4 mps 776 mmHg 58%
    11:00 +15°C° 0 mm 4 mps 776 mmHg 56%
    12:00 +15°C° 0 mm 4 mps 776 mmHg 53%
    13:00 +15°C° 0 mm 4 mps 776 mmHg 54%
    14:00 +15°C° 0 mm 4 mps 776 mmHg 54%
    15:00 +15°C° 0 mm 5 mps 776 mmHg 54%
    16:00 +13°C° 0 mm 4 mps 776 mmHg 59%
    17:00 +12°C° 0 mm 4 mps 776 mmHg 64%
    18:00 +11°C° 0 mm 4 mps 777 mmHg 70%
    19:00 +11°C° 0 mm 4 mps 777 mmHg 70%
    20:00 +11°C° 0 mm 4 mps 777 mmHg 70%
    21:00 +11°C° 0 mm 4 mps 778 mmHg 71%
    22:00 +10°C° 0 mm 3 mps 778 mmHg 71%
    23:00 +10°C° 0 mm 3 mps 778 mmHg 71%

    25 September, Tuesday

    Time Temperature Precipitation Wind Pressure Humidity
    00:00 +10°C° 0 mm 3 mps 778 mmHg 71%
    01:00 +9°C° 0 mm 2 mps 778 mmHg 72%
    02:00 +9°C° 0 mm 2 mps 778 mmHg 74%
    03:00 +8°C° 0 mm 2 mps 778 mmHg 76%
    04:00 +8°C° 0 mm 2 mps 778 mmHg 78%
    05:00 +8°C° 0 mm 2 mps 778 mmHg 79%
    06:00 +7°C° 0 mm 2 mps 778 mmHg 81%
    07:00 +9°C° 0 mm 2 mps 778 mmHg 75%
    08:00 +11°C° 0 mm 3 mps 778 mmHg 68%
    09:00 +12°C° 0 mm 3 mps 778 mmHg 62%
    10:00 +13°C° 0 mm 3 mps 778 mmHg 57%
    11:00 +14°C° 0 mm 3 mps 778 mmHg 53%
    12:00 +16°C° 0 mm 3 mps 777 mmHg 48%
    13:00 +16°C° 0 mm 3 mps 777 mmHg 47%
    14:00 +17°C° 0 mm 3 mps 776 mmHg 47%
    15:00 +17°C° 0 mm 3 mps 776 mmHg 46%
    16:00 +14°C° 0 mm 3 mps 776 mmHg 50%
    17:00 +13°C° 0 mm 3 mps 775 mmHg 55%
    18:00 +12°C° 0 mm 3 mps 775 mmHg 59%
    19:00 +11°C° 0 mm 3 mps 775 mmHg 61%
    20:00 +11°C° 0 mm 3 mps 775 mmHg 63%
    21:00 +10°C° 0 mm 3 mps 775 mmHg 64%
    22:00 +9°C° 0 mm 3 mps 775 mmHg 66%
    23:00 +9°C° 0 mm 3 mps 775 mmHg 67%

    26 September, Wednesday

    Time Temperature Precipitation Wind Pressure Humidity
    00:00 +8°C° 0 mm 3 mps 774 mmHg 69%
    01:00 +8°C° 0 mm 3 mps 774 mmHg 69%
    02:00 +8°C° 0 mm 3 mps 774 mmHg 69%
    03:00 +7°C° 0 mm 3 mps 773 mmHg 69%
    04:00 +7°C° 0 mm 3 mps 773 mmHg 69%
    05:00 +7°C° 0 mm 2 mps 773 mmHg 69%
    06:00 +7°C° 0 mm 2 mps 773 mmHg 70%
    07:00 +9°C° 0 mm 2 mps 773 mmHg 64%
    08:00 +12°C° 0 mm 2 mps 773 mmHg 59%
    09:00 +14°C° 0 mm 2 mps 773 mmHg 53%
    10:00 +14°C° 0 mm 3 mps 773 mmHg 49%
    11:00 +16°C° 0 mm 3 mps 773 mmHg 44%
    12:00 +18°C° 0 mm 3 mps 772 mmHg 40%
    13:00 +18°C° 0 mm 3 mps 772 mmHg 40%
    14:00 +19°C° 0 mm 3 mps 771 mmHg 39%
    15:00 +19°C° 0 mm 3 mps 771 mmHg 39%
    16:00 +18°C° 0 mm 3 mps 771 mmHg 44%
    17:00 +16°C° 0 mm 3 mps 771 mmHg 48%
    18:00 +13°C° 0 mm 3 mps 771 mmHg 53%
    19:00 +13°C° 0 mm 3 mps 771 mmHg 56%
    20:00 +12°C° 0 mm 3 mps 771 mmHg 58%
    21:00 +11°C° 0 mm 3 mps 771 mmHg 60%
    22:00 +11°C° 0 mm 4 mps 771 mmHg 61%
    23:00 +11°C° 0 mm 4 mps 770 mmHg 62%

    27 September, Thursday

    Time Temperature Precipitation Wind Pressure Humidity
    00:00 +10°C° 0 mm 4 mps 770 mmHg 63%
    01:00 +10°C° 0 mm 4 mps 770 mmHg 65%
    02:00 +10°C° 0 mm 4 mps 769 mmHg 66%
    03:00 +10°C° 0 mm 4 mps 769 mmHg 68%
    04:00 +10°C° 0 mm 4 mps 769 mmHg 70%
    05:00 +9°C° 0 mm 5 mps 769 mmHg 71%
    06:00 +9°C° 0 mm 5 mps 769 mmHg 73%
    07:00 +12°C° 0 mm 5 mps 769 mmHg 69%
    08:00 +14°C° 0 mm 5 mps 769 mmHg 64%
    09:00 +16°C° 0 mm 6 mps 768 mmHg 60%
    10:00 +17°C° 0 mm 6 mps 768 mmHg 57%
    11:00 +20°C° 0 mm 6 mps 768 mmHg 53%
    12:00 +21°C° 0 mm 6 mps 768 mmHg 49%
    13:00 +21°C° 0 mm 5 mps 768 mmHg 52%
    14:00 +21°C° 0 mm 5 mps 767 mmHg 55%
    15:00 +21°C° 0 mm 4 mps 767 mmHg 58%
    16:00 +19°C° 0 mm 5 mps 767 mmHg 66%
    17:00 +17°C° 0 mm 5 mps 768 mmHg 74%
    18:00 +16°C° 0 mm 6 mps 768 mmHg 81%
    19:00 +15°C° 0.1 mm 6 mps 768 mmHg 82%
    20:00 +15°C° 0.1 mm 6 mps 769 mmHg 83%
    21:00 +15°C° 0.1 mm 6 mps 770 mmHg 84%
    22:00 +14°C° 0 mm 6 mps 770 mmHg 84%
    23:00 +14°C° 0 mm 6 mps 770 mmHg 83%
    Show more